Location: Hradec Kralove
(50.2170°N, 15.8330°E)
Time: 19:21:55
(UTC+01:00)

deb Explorer IX - All Passes

Search period start: 07 February 2023 00:00
Search period end: 17 February 2023 00:00
Orbit: 534 x 1048 km, 38.8° (Epoch: 05 February)

Date Brightness Start Highest point End Pass type
(mag) Time Alt. Az. Time Alt. Az. Time Alt. Az.
07 Feb - 02:19:07 10° S 02:21:03 12° SSE 02:22:54 10° SE night (unlit)
07 Feb - 04:03:11 10° SW 04:06:12 18° S 04:09:02 10° SE visible
07 Feb - 05:49:14 10° SW 05:51:17 13° SSW 05:53:18 10° SSE visible
08 Feb - 01:46:24 10° S 01:48:21 12° SSE 01:50:14 10° SE night (unlit)
08 Feb - 03:30:21 10° SW 03:33:30 18° S 03:36:28 10° SE visible
08 Feb - 05:16:16 10° SW 05:18:37 14° SSW 05:20:53 10° SSE visible
09 Feb - 01:13:37 10° S 01:15:36 12° SSE 01:17:30 10° SE night (unlit)
09 Feb - 02:57:27 10° SW 03:00:47 19° S 03:03:52 10° SE night (unlit)
09 Feb - 04:43:17 10° SW 04:45:55 16° SSW 04:48:25 10° SSE visible
10 Feb - 00:40:48 10° S 00:42:49 12° SSE 00:44:44 10° SE night (unlit)
10 Feb - 02:24:29 10° SW 02:28:01 19° S 02:31:15 10° SE night (unlit)
10 Feb - 04:10:15 10° SW 04:13:10 17° SSW 04:15:55 10° SSE visible
11 Feb - 00:07:58 10° S 00:09:59 12° SSE 00:11:54 10° SE night (unlit)
11 Feb - 01:51:29 10° SW 01:55:12 20° S 01:58:34 10° SE night (unlit)
11 Feb - 03:37:10 10° SW 03:40:23 18° SSW 03:43:23 10° SSE visible
11 Feb - 23:35:07 10° S 23:37:06 12° SSE 23:39:00 10° SE night (unlit)
12 Feb - 01:18:25 10° SW 01:22:19 20° S 01:25:52 10° SE night (unlit)
12 Feb - 03:04:03 10° SW 03:07:33 19° S 03:10:47 10° SE night (unlit)
12 Feb - 23:02:15 10° S 23:04:10 12° SSE 23:06:01 10° SE night (unlit)
13 Feb - 00:45:19 10° SW 00:49:24 21° S 00:53:06 10° ESE night (unlit)
13 Feb - 02:30:52 10° WSW 02:34:41 21° S 02:38:08 10° SE night (unlit)
13 Feb - 04:18:32 10° SW 04:19:39 11° SSW 04:20:44 10° SSW visible
13 Feb - 22:29:25 10° S 22:31:12 11° SSE 22:32:55 10° SE night (unlit)
14 Feb - 00:12:10 10° SW 00:16:26 21° S 00:20:17 10° ESE night (unlit)
14 Feb - 01:57:39 10° WSW 02:01:45 22° S 02:05:26 10° SE night (unlit)
14 Feb - 03:44:47 10° SW 03:46:46 12° SSW 03:48:40 10° S night (unlit)
14 Feb - 21:56:39 10° SSE 21:58:11 11° SSE 21:59:40 10° SE night (unlit)
14 Feb - 23:39:00 10° SW 23:43:24 21° SSE 23:47:25 10° ESE night (unlit)
15 Feb - 01:24:23 10° WSW 01:28:46 23° S 01:32:41 10° SE night (unlit)
15 Feb - 03:11:14 10° SW 03:13:50 14° SSW 03:16:18 10° S night (unlit)
15 Feb - 21:24:02 10° SSE 21:25:07 10° SSE 21:26:11 10° SE night (unlit)
15 Feb - 23:05:47 10° SSW 23:10:20 21° SSE 23:14:29 10° ESE night (unlit)
16 Feb - 00:51:05 10° WSW 00:55:43 25° S 00:59:53 10° SE night (unlit)
16 Feb - 02:37:45 10° WSW 02:40:53 16° SSW 02:43:46 10° SSE night (unlit)
16 Feb - 22:32:34 10° SSW 22:37:13 21° SSE 22:41:29 10° ESE night (unlit)
